Wind_Speed
27 27 27 32 35 36 32 28 34 35 33 39 42 42 42 40 41 38 36 32 31 27 24 23 21 19 17 15 12 13 15 15 10 18 23 23 23 26 24 25 32 28 30
20 23 28 30 31 35 31 28 26 32 34 37 41 41 40 40 42 41 39 33 33 30 28 23 21 18 17 16 16 17 19 20 21 15 19 24 25 27 25 27 30 31 27
28 26 23 25 26 30 31 29 29 29 32 34 41 39 37 37 39 39 39 34 33 30 27 26 22 19 18 16 16 17 17 16 18 20 20 22 22 27 32 27 30 33 31
32 31 21 20 21 29 34 28 32 29 31 32 38 38 37 37 37 37 36 33 32 29 27 24 22 21 17 15 14 14 12 12 14 18 21 20 25 23 29 28 27 26 26
32 28 27 24 18 25 31 30 31 32 26 30 35 36 36 36 36 36 36 36 30 28 25 23 22 18 14 13 12 13 15 16 18 20 18 20 22 22 24 25 28 30 31
32 32 30 28 18 17 28 33 23 36 31 25 33 35 35 33 34 37 37 35 31 27 26 22 16 14 14 13 14 13 15 18 19 20 20 20 25 27 28 24 24 26 17
32 33 35 26 22 20 22 25 28 33 29 23 33 35 34 33 33 37 36 34 30 25 23 21 17 13 13 13 10 12 15 15 17 22 23 25 27 24 29 32 32 30 31
29 33 36 21 21 25 23 23 27 33 31 24 31 34 34 35 34 35 34 31 27 24 21 17 15 13 8 5 9 13 15 16 20 23 26 26 28 33 34 34 35 37 37
32 34 24 26 29 27 25 23 25 28 33 24 29 34 34 34 36 36 33 29 26 23 20 16 13 10 8 7 9 13 14 17 18 21 26 29 29 33 36 37 31 24 18
32 24 27 29 32 32 29 26 28 28 31 24 26 34 35 34 37 37 36 29 25 22 17 15 12 12 11 8 11 11 14 18 22 30 30 28 34 36 34 30 28 23 22
32 29 29 29 36 37 32 27 25 26 26 27 26 31 33 37 37 38 34 29 26 21 18 15 13 11 12 9 8 9 14 17 24 26 23 32 31 32 33 33 32 28 24
29 28 29 33 36 36 31 27 24 20 22 27 25 27 30 37 39 36 32 28 24 23 18 13 9 12 12 9 7 9 11 16 21 16 25 25 28 33 36 40 40 39 36
28 29 29 33 35 36 32 24 20 24 23 25 24 25 24 32 34 35 34 22 22 20 16 14 13 10 6 7 6 6 11 13 17 16 22 22 28 30 35 34 44 37 30
32 29 30 31 34 34 28 20 25 23 25 23 22 23 25 27 29 31 28 23 19 20 14 11 6 4 4 5 6 5 7 11 14 16 22 25 28 27 30 32 34 35 12
31 28 26 26 27 21 16 18 22 26 21 24 25 29 27 26 29 33 31 28 22 18 14 10 11 9 5 5 2 3 7 11 10 17 22 24 26 26 28 33 32 23 14
28 23 21 23 22 17 17 8 13 23 25 21 30 32 28 32 33 32 30 23 20 20 18 13 9 7 5 4 1 4 7 10 12 15 19 22 23 24 28 31 29 22 12
28 18 21 21 17 13 18 11 11 11 17 32 35 33 34 35 32 31 29 26 23 20 17 11 11 8 5 3 3 5 6 10 12 12 15 22 22 22 24 24 25 22 11
22 19 18 17 11 13 9 15 13 16 18 25 36 36 39 40 36 31 27 22 17 13 13 11 10 8 5 4 3 5 7 10 10 10 11 19 21 20 22 22 23 21 15
14 15 10 13 12 13 11 15 19 23 22 27 30 31 34 32 28 24 21 20 18 14 13 10 9 8 6 4 3 3 5 9 10 11 11 17 20 19 20 21 21 21 21
8 7 5 11 7 14 24 22 24 23 22 22 22 24 27 28 23 21 18 14 12 16 15 13 10 8 5 3 1 2 4 7 7 11 12 14 20 18 19 20 19 18 17
4 6 9 20 18 19 22 22 22 21 18 18 18 20 21 22 20 19 17 12 10 14 13 11 10 8 5 2 1 1 3 6 6 10 13 13 19 19 19 20 20 18 16
11 11 13 22 23 24 24 24 25 24 22 20 19 21 19 20 19 18 16 14 13 13 12 10 9 7 5 2 1 2 2 5 7 7 8 11 19 20 19 20 20 19 17
15 13 16 21 21 23 23 21 21 21 22 19 16 17 16 18 17 16 16 15 13 11 10 8 6 5 3 2 1 3 2 2 6 7 8 11 17 20 19 17 19 17 16
18 15 15 17 17 17 17 17 19 20 20 18 15 14 14 16 15 13 12 13 13 11 9 6 4 3 3 2 3 3 1 1 4 7 9 11 15 18 20 18 16 15 17
21 18 16 18 18 17 18 18 18 18 18 19 18 18 16 15 13 12 12 12 12 10 7 5 4 3 3 2 1 2 3 4 5 5 8 12 15 17 19 16 14 15 15
22 21 20 20 20 20 19 19 19 18 16 17 16 13 12 11 11 10 9 8 8 7 6 6 3 3 2 0 1 5 6 5 4 6 9 12 14 16 17 16 14 13 14
Wind_Direction
311 323 325 323 318 310 299 286 234 232 236 213 202 198 198 197 195 193 193 191 196 197 201 204 210 216 222 229 241 256 261 262 261 279 283 289 293 293 293 291 295 288 290
308 319 319 317 314 313 304 297 275 246 235 210 198 195 195 194 192 191 190 189 193 195 201 204 208 215 226 238 247 254 261 263 264 270 288 296 292 297 295 297 291 287 284
314 308 302 309 317 316 312 305 288 271 231 209 194 191 193 193 189 191 190 189 193 195 199 203 208 215 226 236 246 252 256 268 277 288 289 297 300 302 304 298 292 289 287
315 304 292 309 319 316 310 310 303 273 237 210 191 190 193 195 191 190 188 188 191 195 201 205 211 217 224 238 249 260 274 284 298 304 302 304 300 300 298 290 290 284 278
309 304 303 301 311 315 308 311 304 284 272 214 188 189 195 196 192 189 188 188 188 190 195 205 209 213 226 239 250 266 282 288 291 294 290 290 290 294 283 287 282 284 281
304 306 299 296 294 322 304 308 300 295 264 222 187 187 193 197 196 192 189 187 189 189 193 200 203 220 223 234 249 260 270 275 277 276 275 280 292 289 285 284 287 287 288
301 302 304 297 300 301 297 301 301 292 269 250 189 190 192 196 195 192 190 185 184 187 192 196 201 216 232 223 238 265 272 280 285 291 285 287 288 298 304 290 283 276 276
303 301 296 302 312 309 296 280 288 277 279 264 191 191 189 192 195 186 185 180 181 187 193 197 203 202 195 220 256 268 278 291 292 295 294 301 308 304 296 292 291 287 284
299 295 308 314 309 306 288 272 275 273 279 256 193 185 182 187 190 182 176 175 178 182 188 193 198 205 215 234 260 267 288 299 303 300 301 304 302 299 298 298 292 292 285
303 310 309 309 310 300 289 280 262 259 260 263 189 181 179 181 184 180 179 171 172 177 184 192 203 211 232 228 246 270 297 303 309 310 312 313 310 309 305 302 292 281 276
302 305 303 304 304 296 290 271 251 242 249 265 185 173 171 180 178 182 183 180 179 178 181 190 206 213 198 213 239 273 289 304 307 312 318 316 313 313 313 317 310 292 279
298 302 298 298 303 294 288 267 236 226 237 257 174 162 166 175 179 180 174 177 178 176 172 165 164 165 177 211 261 288 295 303 307 318 324 315 319 319 323 324 319 317 310
303 303 297 296 302 296 292 254 221 208 216 239 171 162 157 165 173 176 176 164 172 156 149 149 146 155 193 258 278 296 303 311 321 333 321 317 320 319 322 327 335 341 342
301 304 296 299 299 298 288 230 197 197 206 221 172 159 150 157 165 170 178 180 164 160 157 163 184 193 207 259 270 292 311 324 329 343 322 324 327 332 335 340 334 333 53
301 300 291 295 297 305 288 180 187 194 203 205 168 157 146 155 166 168 173 175 168 170 164 157 167 182 221 268 242 18 334 336 354 346 331 336 334 342 344 346 345 353 51
302 288 286 292 293 295 303 189 170 183 210 220 163 158 153 162 160 166 172 170 171 166 152 147 146 160 209 239 83 25 340 350 3 346 338 347 340 346 348 348 354 4 48
298 279 285 284 286 295 280 186 167 178 204 169 158 154 153 158 156 154 158 160 156 149 145 162 164 189 197 150 73 30 356 357 353 345 340 354 346 352 355 352 353 3 50
276 283 286 272 264 274 245 149 160 153 142 123 143 144 143 147 153 154 152 151 138 139 153 169 178 167 164 156 88 54 348 337 343 350 356 360 358 356 356 359 353 358 2
291 293 269 267 256 240 166 137 133 123 118 112 112 118 135 142 144 143 149 145 150 153 168 161 153 153 160 162 114 29 349 327 345 357 4 360 5 1 360 358 355 359 19
317 327 277 260 222 130 126 123 124 115 110 112 119 126 131 131 134 144 146 149 148 165 164 158 154 161 165 157 150 20 346 333 350 10 8 3 3 5 0 353 359 356 355
95 70 49 83 103 114 128 127 124 117 107 114 124 138 138 132 138 144 151 150 145 144 152 160 162 164 163 189 263 316 341 329 357 21 13 2 0 360 2 356 352 354 351
113 80 86 90 89 92 98 108 116 122 130 137 142 143 132 133 147 148 149 152 144 139 152 145 148 157 157 165 255 298 338 335 344 11 360 349 353 354 354 355 351 346 342
105 96 82 92 95 94 94 99 116 123 120 119 123 124 117 120 122 133 143 149 143 138 131 139 148 155 159 189 247 302 315 342 332 349 356 343 339 344 346 344 343 335 332
107 98 97 97 97 97 100 99 100 105 116 127 138 138 126 127 132 135 141 131 137 135 139 144 156 164 169 245 307 308 266 358 325 322 334 331 332 332 332 329 336 330 325
72 78 90 93 94 98 98 103 107 108 103 103 110 111 112 115 123 121 121 130 135 145 145 160 183 189 220 296 32 240 307 329 334 308 325 322 322 322 318 317 324 323 314
60 63 63 70 78 86 94 94 94 101 100 104 111 112 117 122 126 130 139 150 146 136 135 135 159 170 188 125 352 334 343 340 346 339 318 322 323 319 315 309 314 313 306
Height
752 748 745 741 735 727 720 715 711 714 717 719 723 729 735 740 743 748 752 757 762 768 772 776 779 782 785 787 788 789 790 791 789 787 786 785 784 782 781 779 778 776 774
748 745 742 737 732 725 716 710 709 708 710 710 714 721 727 732 737 740 744 749 755 761 767 771 774 779 781 783 784 786 786 787 785 782 780 780 779 777 774 772 770 768 766
744 739 735 732 728 721 715 708 704 703 701 703 706 713 720 726 730 735 738 742 749 755 761 765 770 775 777 779 780 781 781 782 781 778 775 775 774 771 768 764 763 759 757
739 732 728 726 721 719 713 703 700 697 695 696 699 706 713 720 725 730 734 739 744 750 756 761 766 770 772 775 777 777 777 777 776 775 773 771 769 766 763 758 752 751 748
733 727 722 719 715 713 709 702 697 693 691 689 693 700 708 715 720 725 729 733 739 746 751 757 762 765 768 771 772 773 773 773 772 771 770 767 763 759 755 750 745 740 735
727 721 715 711 708 704 706 700 693 691 686 685 687 694 702 710 716 721 726 729 736 741 748 754 757 761 764 766 768 768 770 769 768 767 765 760 754 751 746 743 737 732 719
722 715 709 704 700 697 697 695 690 688 683 682 682 689 697 705 712 717 722 726 732 738 745 750 754 758 760 762 763 764 765 765 763 762 758 755 749 746 741 733 727 720 711
716 710 703 698 696 693 693 690 686 685 680 678 676 683 692 701 708 715 719 723 729 736 742 747 751 754 756 758 759 759 760 760 759 756 753 748 744 738 731 722 714 706 700
710 704 698 695 692 690 685 683 681 681 676 672 672 677 686 696 704 712 717 721 727 733 739 744 747 751 753 755 756 757 756 755 753 752 748 743 736 728 721 711 703 698 688
705 698 695 690 686 683 683 677 673 673 670 669 667 672 682 692 701 709 714 719 724 730 736 740 744 747 749 752 753 754 752 750 748 745 741 734 727 718 709 704 696 688 679
699 693 689 686 683 674 670 668 664 665 665 664 664 670 678 687 697 705 711 717 721 727 732 737 740 743 747 749 750 750 749 747 744 742 735 728 720 711 702 694 685 677 666
691 687 682 677 674 666 662 657 657 655 661 661 660 668 676 683 692 702 710 715 720 724 728 733 736 740 744 746 747 747 746 744 741 738 731 724 717 706 696 685 673 663 654
682 679 675 668 663 654 645 642 643 652 658 660 657 664 674 682 691 699 708 713 718 722 725 729 734 738 741 743 743 744 743 741 738 735 729 723 716 706 695 683 667 656 643
674 670 666 662 655 648 638 632 639 647 654 653 652 662 672 681 689 697 705 711 716 719 724 729 733 735 739 740 740 741 741 739 736 734 728 722 714 705 695 688 675 660 654
667 662 657 655 648 641 635 633 636 641 646 650 651 659 667 678 685 691 699 706 711 717 723 727 731 735 737 737 737 739 738 736 735 732 726 721 713 706 697 689 679 671 667
660 656 651 647 644 639 637 634 634 638 645 647 650 657 667 675 682 692 699 704 711 716 719 724 730 734 736 736 736 737 735 735 733 731 726 723 716 710 702 694 688 683 677
656 650 645 640 637 636 634 632 636 640 645 644 651 660 668 674 685 693 698 704 711 713 717 724 729 731 734 735 735 735 734 733 733 732 727 724 718 714 708 702 697 692 688
646 645 641 633 634 633 630 632 636 639 646 648 654 662 670 678 687 693 697 704 711 713 717 723 727 729 732 734 734 735 733 732 733 731 727 724 721 717 712 707 702 699 695
639 638 635 632 631 630 630 634 640 645 651 654 661 669 675 682 689 695 700 703 708 712 718 722 726 728 731 733 733 734 733 732 732 731 728 726 724 720 717 714 710 705 701
637 635 632 629 626 626 632 640 646 651 656 662 669 675 680 685 691 696 699 704 708 713 718 721 724 727 730 731 733 733 733 732 732 731 729 727 725 722 721 719 715 711 708
637 635 632 629 631 634 639 646 652 658 666 672 677 681 683 685 691 695 699 704 710 714 718 721 723 726 729 730 732 732 732 731 732 731 731 729 727 725 722 719 717 714 712
639 639 638 637 640 644 648 655 660 668 675 681 684 686 686 687 693 695 700 707 711 714 718 719 722 725 727 730 731 732 732 731 731 731 732 730 728 727 725 722 719 716 714
644 645 645 646 650 654 660 665 671 675 678 682 684 684 688 691 694 699 704 708 712 715 716 720 722 724 726 729 730 731 731 731 730 730 731 731 729 727 725 724 721 719 716
652 653 654 656 659 662 666 669 671 674 679 684 688 689 691 695 699 703 706 708 711 715 718 720 723 724 725 727 728 728 729 730 729 728 728 729 729 726 726 724 722 720 717
658 660 662 663 665 668 671 674 677 681 683 686 689 692 696 699 702 704 706 708 712 715 718 720 722 724 726 725 725 726 727 727 728 728 727 727 728 728 725 723 721 719 718
668 668 668 669 672 675 677 679 681 685 688 691 694 697 700 702 704 706 709 711 713 715 717 720 723 724 725 724 724 725 725 725 725 725 725 726 726 724 723 721 720 718 717